Location: Unspecified
(51.5147°N, 7.4673°E)
Time: 07:22:00
(UTC+01:00)

A-11 Canister half - Pass Details

Date: 16 February 2026
Orbit: 1512 x 1687 km, 47.2° (Epoch: 5 March)

Event Time Altitude Azimuth Distance (km) Brightness Sun altitude
Rises 20:10:47 0° 191° (S) 4,929 11.7 -22.9°
Reaches altitude 10° 20:14:54 10° 177° (S) 3,941 11.0 -23.5°
Enters shadow 20:19:50 21° 148° (SSE) 3,161 10.2 -24.3°
Maximum altitude 20:22:00 22° 132° (SE) 3,064 - -24.6°
Drops below altitude 10° 20:29:01 10° 86° (E) 3,897 - -25.7°
Sets 20:33:01 0° 73° (ENE) 4,861 - -26.3°
